Anedigmi — 2BHF3 — position and weather

sailwx.info

Track history (hours):
 
Tides and Currents Weather Stations Pressure Air Temp Water Temp Dewpoint Dewpoint Depression Visibility Wind Speed Wind Dir Waves Ship Positions

Anedigmi

Last reported at 2014-Sep-15 01:33 UTC. Time now 2014-Sep-15 02:03 UTC.
Position N 43°16' E 006°38'.

Length 50 m; draft 3.1 m.

Type: Pleasure craft. MMSI: 235066107.

Date/timePositionNaut miles runAvg speedWind from/ knotsBaromVisibWave heightAir tempDewpointWater temp
2014-Sep-15 01:33N 43°16' E 006°38'0 0.0
2014-Sep-15 00:27N 43°16' E 006°38'0 0.0
2014-Sep-14 23:33N 43°16' E 006°38'0 0.0
2014-Sep-14 22:33N 43°16' E 006°38'0 0.0
2014-Sep-14 21:24N 43°16' E 006°38'0 0.0
2014-Sep-14 20:33N 43°16' E 006°38'0 0.0
2014-Sep-14 19:33N 43°16' E 006°38'0 0.0
2014-Sep-14 18:27N 43°16' E 006°38'0 0.0
2014-Sep-14 17:33N 43°16' E 006°38'5 5.0
2014-Sep-14 16:33N 43°19' E 006°43'1413.5
2014-Sep-14 15:33N 43°27' E 006°59'8 7.9
2014-Sep-14 14:30N 43°34' E 007°06'0 0.0
2014-Sep-14 13:24N 43°34' E 007°06'0 0.0
2014-Sep-14 12:30N 43°34' E 007°06'0 0.0
2014-Sep-14 11:30N 43°34' E 007°06'2 2.5
2014-Sep-14 10:33N 43°31' E 007°07'8 5.7
2014-Sep-14 09:08N 43°24' E 007°10'712.5
2014-Sep-14 08:33N 43°30' E 007°06'4 3.3
2014-Sep-14 07:28N 43°34' E 007°06'0 0.0
2014-Sep-14 06:28N 43°34' E 007°06'0 0.0
2014-Sep-14 05:28N 43°34' E 007°06'0 0.0
2014-Sep-14 04:28N 43°34' E 007°06'0 0.0
2014-Sep-14 03:28N 43°34' E 007°06'0 0.0
2014-Sep-14 02:28N 43°34' E 007°06'0 0.0
2014-Sep-14 01:28N 43°34' E 007°06'0 0.0
2014-Sep-13 21:28N 43°34' E 007°06'0 0.0
2014-Sep-13 20:28N 43°34' E 007°06'0 0.0
2014-Sep-13 19:28N 43°34' E 007°06'0 0.1
2014-Sep-13 18:28N 43°34' E 007°06'0 0.0
2014-Sep-13 17:28N 43°34' E 007°06'0 0.0
2014-Sep-13 16:22N 43°34' E 007°06'0 0.0
2014-Sep-13 15:22N 43°34' E 007°06'0 0.0
2014-Sep-13 14:16N 43°34' E 007°06'0 0.0
2014-Sep-13 13:28N 43°34' E 007°06'0 0.0
2014-Sep-13 12:33N 43°34' E 007°06'1 0.5
2014-Sep-13 11:23N 43°33' E 007°07'3 3.5
2014-Sep-13 10:29N 43°32' E 007°03'0 0.0
2014-Sep-13 09:23N 43°32' E 007°03'0 0.0
2014-Sep-13 07:34N 43°32' E 007°03'1312.5
2014-Sep-13 06:33N 43°38' E 007°18'  
2014-Sep-06 17:13N 43°53' E 008°01'  
Track history (hours):
 
Tides and Currents Weather Stations Pressure Air Temp Water Temp Dewpoint Dewpoint Depression Visibility Wind Speed Wind Dir Waves Ship Positions

Anedigmi

Last reported at 2014-Sep-15 01:33 UTC. Time now 2014-Sep-15 02:03 UTC.
Position N 43°16' E 006°38'.

Length 50 m; draft 3.1 m.

Type: Pleasure craft. MMSI: 235066107.

Date/timePositionNaut miles runAvg speedWind from/ knotsBaromVisibWave heightAir tempDewpointWater temp
2014-Sep-15 01:33N 43°16' E 006°38'0 0.0
2014-Sep-15 00:27N 43°16' E 006°38'0 0.0
2014-Sep-14 23:33N 43°16' E 006°38'0 0.0
2014-Sep-14 22:33N 43°16' E 006°38'0 0.0
2014-Sep-14 21:24N 43°16' E 006°38'0 0.0
2014-Sep-14 20:33N 43°16' E 006°38'0 0.0
2014-Sep-14 19:33N 43°16' E 006°38'0 0.0
2014-Sep-14 18:27N 43°16' E 006°38'0 0.0
2014-Sep-14 17:33N 43°16' E 006°38'5 5.0
2014-Sep-14 16:33N 43°19' E 006°43'1413.5
2014-Sep-14 15:33N 43°27' E 006°59'8 7.9
2014-Sep-14 14:30N 43°34' E 007°06'0 0.0
2014-Sep-14 13:24N 43°34' E 007°06'0 0.0
2014-Sep-14 12:30N 43°34' E 007°06'0 0.0
2014-Sep-14 11:30N 43°34' E 007°06'2 2.5
2014-Sep-14 10:33N 43°31' E 007°07'8 5.7
2014-Sep-14 09:08N 43°24' E 007°10'712.5
2014-Sep-14 08:33N 43°30' E 007°06'4 3.3
2014-Sep-14 07:28N 43°34' E 007°06'0 0.0
2014-Sep-14 06:28N 43°34' E 007°06'0 0.0
2014-Sep-14 05:28N 43°34' E 007°06'0 0.0
2014-Sep-14 04:28N 43°34' E 007°06'0 0.0
2014-Sep-14 03:28N 43°34' E 007°06'0 0.0
2014-Sep-14 02:28N 43°34' E 007°06'0 0.0
2014-Sep-14 01:28N 43°34' E 007°06'0 0.0
2014-Sep-13 21:28N 43°34' E 007°06'0 0.0
2014-Sep-13 20:28N 43°34' E 007°06'0 0.0
2014-Sep-13 19:28N 43°34' E 007°06'0 0.1
2014-Sep-13 18:28N 43°34' E 007°06'0 0.0
2014-Sep-13 17:28N 43°34' E 007°06'0 0.0
2014-Sep-13 16:22N 43°34' E 007°06'0 0.0
2014-Sep-13 15:22N 43°34' E 007°06'0 0.0
2014-Sep-13 14:16N 43°34' E 007°06'0 0.0
2014-Sep-13 13:28N 43°34' E 007°06'0 0.0
2014-Sep-13 12:33N 43°34' E 007°06'1 0.5
2014-Sep-13 11:23N 43°33' E 007°07'3 3.5
2014-Sep-13 10:29N 43°32' E 007°03'0 0.0
2014-Sep-13 09:23N 43°32' E 007°03'0 0.0
2014-Sep-13 07:34N 43°32' E 007°03'1312.5
2014-Sep-13 06:33N 43°38' E 007°18'  
2014-Sep-06 17:13N 43°53' E 008°01'  

Dump ship's entire track history